• In Italy
  • List of Countries
  • For 7 days
  • Water Temperature
  • Satellite Maps
  • Weather Map
  • Weather Widgets
  • user-avatar
    Login

    Hourly Weather Boyary (Tyurli)

    Today, 19 April, Thursday

    Time Temperature Precipitation Wind Pressure Humidity
    00:00 +8°C° 0 mm 5 mps 746 mmHg 81%
    01:00 +8°C° 0 mm 5 mps 746 mmHg 84%
    02:00 +7°C° 0 mm 4 mps 746 mmHg 88%
    03:00 +7°C° 0 mm 5 mps 746 mmHg 88%
    04:00 +7°C° 0 mm 5 mps 746 mmHg 87%
    05:00 +7°C° 0 mm 5 mps 746 mmHg 86%
    06:00 +7°C° 0 mm 6 mps 746 mmHg 84%
    07:00 +7°C° 0 mm 6 mps 745 mmHg 82%
    08:00 +6°C° 0 mm 7 mps 745 mmHg 79%
    09:00 +9°C° 0 mm 7 mps 745 mmHg 73%
    10:00 +10°C° 0 mm 8 mps 745 mmHg 66%
    11:00 +11°C° 0 mm 8 mps 745 mmHg 60%
    12:00 +11°C° 0 mm 8 mps 745 mmHg 61%
    13:00 +10°C° 0 mm 8 mps 745 mmHg 61%
    14:00 +10°C° 0 mm 8 mps 745 mmHg 62%
    15:00 +10°C° 0 mm 8 mps 745 mmHg 63%
    16:00 +10°C° 0 mm 7 mps 745 mmHg 64%
    17:00 +10°C° 0 mm 7 mps 746 mmHg 65%
    18:00 +9°C° 0 mm 7 mps 746 mmHg 68%
    19:00 +8°C° 0 mm 6 mps 746 mmHg 71%
    20:00 +8°C° 0 mm 5 mps 747 mmHg 74%
    21:00 +7°C° 0 mm 5 mps 747 mmHg 77%
    22:00 +7°C° 0 mm 4 mps 747 mmHg 79%
    23:00 +6°C° 0 mm 4 mps 748 mmHg 82%

    Tomorrow, 20 April, Friday

    Time Temperature Precipitation Wind Pressure Humidity
    00:00 +6°C° 0 mm 4 mps 748 mmHg 84%
    01:00 +5°C° 0 mm 4 mps 748 mmHg 86%
    02:00 +4°C° 0 mm 4 mps 748 mmHg 88%
    03:00 +4°C° 0 mm 4 mps 748 mmHg 90%
    04:00 +3°C° 0 mm 3 mps 748 mmHg 91%
    05:00 +3°C° 0 mm 3 mps 748 mmHg 92%
    06:00 +4°C° 0 mm 3 mps 748 mmHg 86%
    07:00 +5°C° 0 mm 3 mps 749 mmHg 81%
    08:00 +8°C° 0 mm 3 mps 749 mmHg 75%
    09:00 +9°C° 0 mm 3 mps 749 mmHg 68%
    10:00 +11°C° 0 mm 4 mps 749 mmHg 60%
    11:00 +13°C° 0 mm 4 mps 749 mmHg 53%
    12:00 +14°C° 0 mm 4 mps 749 mmHg 51%
    13:00 +15°C° 0 mm 4 mps 748 mmHg 48%
    14:00 +17°C° 0 mm 4 mps 748 mmHg 46%
    15:00 +17°C° 0 mm 4 mps 747 mmHg 46%
    16:00 +17°C° 0 mm 4 mps 747 mmHg 47%
    17:00 +17°C° 0 mm 4 mps 746 mmHg 47%
    18:00 +14°C° 0 mm 3 mps 746 mmHg 54%
    19:00 +13°C° 0 mm 3 mps 746 mmHg 61%
    20:00 +12°C° 0 mm 2 mps 745 mmHg 68%
    21:00 +10°C° 0 mm 3 mps 745 mmHg 70%
    22:00 +10°C° 0 mm 3 mps 745 mmHg 73%
    23:00 +10°C° 0 mm 3 mps 744 mmHg 75%

    Day after tomorrow, 21 April, Saturday

    Time Temperature Precipitation Wind Pressure Humidity
    00:00 +10°C° 0 mm 4 mps 743 mmHg 76%
    01:00 +10°C° 0 mm 4 mps 743 mmHg 76%
    02:00 +10°C° 0 mm 4 mps 742 mmHg 76%
    03:00 +9°C° 0 mm 5 mps 741 mmHg 76%
    04:00 +8°C° 0 mm 5 mps 740 mmHg 76%
    05:00 +8°C° 0 mm 5 mps 740 mmHg 76%
    06:00 +10°C° 0 mm 6 mps 739 mmHg 74%
    07:00 +11°C° 0 mm 7 mps 738 mmHg 72%
    08:00 +12°C° 0 mm 7 mps 737 mmHg 69%
    09:00 +13°C° 0 mm 8 mps 737 mmHg 70%
    10:00 +15°C° 0 mm 8 mps 737 mmHg 70%
    11:00 +16°C° 0 mm 8 mps 736 mmHg 70%
    12:00 +16°C° 0.1 mm 8 mps 736 mmHg 65%
    13:00 +16°C° 0.1 mm 8 mps 736 mmHg 59%
    14:00 +16°C° 0.1 mm 9 mps 736 mmHg 54%
    15:00 +16°C° 0.1 mm 8 mps 736 mmHg 52%
    16:00 +15°C° 0.1 mm 8 mps 737 mmHg 49%
    17:00 +14°C° 0.1 mm 7 mps 737 mmHg 47%
    18:00 +12°C° 0 mm 7 mps 737 mmHg 49%
    19:00 +10°C° 0 mm 6 mps 738 mmHg 52%
    20:00 +9°C° 0 mm 5 mps 738 mmHg 54%
    21:00 +8°C° 0 mm 5 mps 739 mmHg 57%
    22:00 +7°C° 0 mm 4 mps 739 mmHg 60%
    23:00 +6°C° 0 mm 4 mps 739 mmHg 63%

    22 April, Sunday

    Time Temperature Precipitation Wind Pressure Humidity
    00:00 +6°C° 0 mm 4 mps 740 mmHg 66%
    01:00 +5°C° 0 mm 4 mps 740 mmHg 70%
    02:00 +5°C° 0 mm 4 mps 740 mmHg 73%
    03:00 +5°C° 0 mm 4 mps 740 mmHg 75%
    04:00 +5°C° 0 mm 4 mps 740 mmHg 78%
    05:00 +4°C° 0 mm 4 mps 740 mmHg 80%
    06:00 +6°C° 0 mm 4 mps 740 mmHg 75%
    07:00 +7°C° 0 mm 4 mps 741 mmHg 71%
    08:00 +8°C° 0 mm 5 mps 741 mmHg 66%
    09:00 +9°C° 0 mm 5 mps 741 mmHg 59%
    10:00 +12°C° 0 mm 5 mps 741 mmHg 52%
    11:00 +13°C° 0 mm 6 mps 741 mmHg 44%
    12:00 +14°C° 0 mm 6 mps 740 mmHg 43%
    13:00 +14°C° 0 mm 6 mps 740 mmHg 41%
    14:00 +15°C° 0 mm 6 mps 740 mmHg 40%
    15:00 +14°C° 0 mm 5 mps 740 mmHg 43%
    16:00 +14°C° 0 mm 5 mps 740 mmHg 46%
    17:00 +13°C° 0 mm 4 mps 740 mmHg 50%
    18:00 +12°C° 0 mm 3 mps 740 mmHg 56%
    19:00 +11°C° 0 mm 3 mps 740 mmHg 63%
    20:00 +9°C° 0 mm 2 mps 740 mmHg 70%
    21:00 +10°C° 0 mm 1 mps 740 mmHg 71%
    22:00 +10°C° 0 mm 1 mps 740 mmHg 73%
    23:00 +9°C° 0 mm 1 mps 740 mmHg 75%

    23 April, Monday

    Time Temperature Precipitation Wind Pressure Humidity
    00:00 +9°C° 0 mm 1 mps 740 mmHg 76%
    01:00 +8°C° 0 mm 1 mps 740 mmHg 78%
    02:00 +7°C° 0 mm 1 mps 740 mmHg 79%
    03:00 +7°C° 0 mm 1 mps 740 mmHg 80%
    04:00 +6°C° 0 mm 1 mps 740 mmHg 80%
    05:00 +5°C° 0 mm 1 mps 740 mmHg 80%
    06:00 +6°C° 0 mm 1 mps 740 mmHg 73%
    07:00 +8°C° 0 mm 1 mps 740 mmHg 66%
    08:00 +9°C° 0 mm 1 mps 740 mmHg 59%
    09:00 +11°C° 0 mm 1 mps 740 mmHg 54%
    10:00 +13°C° 0 mm 1 mps 740 mmHg 49%
    11:00 +14°C° 0 mm 1 mps 740 mmHg 44%
    12:00 +15°C° 0 mm 1 mps 740 mmHg 42%
    13:00 +16°C° 0 mm 1 mps 739 mmHg 41%
    14:00 +16°C° 0 mm 1 mps 739 mmHg 39%
    15:00 +16°C° 0 mm 2 mps 738 mmHg 42%
    16:00 +16°C° 0 mm 2 mps 738 mmHg 44%
    17:00 +16°C° 0 mm 3 mps 737 mmHg 46%
    18:00 +14°C° 0 mm 3 mps 737 mmHg 53%
    19:00 +12°C° 0 mm 3 mps 737 mmHg 59%
    20:00 +11°C° 0 mm 3 mps 736 mmHg 66%
    21:00 +11°C° 0 mm 4 mps 736 mmHg 65%
    22:00 +11°C° 0 mm 4 mps 735 mmHg 65%
    23:00 +10°C° 0 mm 5 mps 735 mmHg 64%

    24 April, Tuesday

    Time Temperature Precipitation Wind Pressure Humidity
    00:00 +9°C° 0.6 mm 5 mps 734 mmHg 68%
    01:00 +9°C° 0.6 mm 5 mps 733 mmHg 72%
    02:00 +9°C° 0.6 mm 5 mps 733 mmHg 76%
    03:00 +9°C° 1.4 mm 5 mps 733 mmHg 80%
    04:00 +9°C° 1.4 mm 5 mps 733 mmHg 85%
    05:00 +8°C° 1.4 mm 5 mps 733 mmHg 90%
    06:00 +8°C° 0 mm 5 mps 733 mmHg 87%
    07:00 +8°C° 0 mm 6 mps 733 mmHg 83%
    08:00 +8°C° 0 mm 6 mps 733 mmHg 80%
    09:00 +9°C° 0 mm 6 mps 733 mmHg 75%
    10:00 +10°C° 0 mm 6 mps 734 mmHg 70%
    11:00 +11°C° 0 mm 6 mps 734 mmHg 64%
    12:00 +11°C° 0.1 mm 6 mps 734 mmHg 64%
    13:00 +10°C° 0.1 mm 6 mps 734 mmHg 63%
    14:00 +10°C° 0.1 mm 6 mps 734 mmHg 63%
    15:00 +10°C° 0.1 mm 6 mps 734 mmHg 63%
    16:00 +10°C° 0.1 mm 5 mps 734 mmHg 62%
    17:00 +10°C° 0.1 mm 5 mps 734 mmHg 62%
    18:00 +10°C° 0 mm 4 mps 734 mmHg 68%
    19:00 +8°C° 0 mm 3 mps 734 mmHg 75%
    20:00 +7°C° 0 mm 2 mps 734 mmHg 81%
    21:00 +7°C° 0 mm 2 mps 734 mmHg 84%
    22:00 +6°C° 0 mm 2 mps 734 mmHg 86%
    23:00 +6°C° 0 mm 2 mps 734 mmHg 89%
    Show more